Total_Precipitation_Accumulation
0.00 0.00 0.00 0.00 0.00 0.00 0.00 0.00 0.00 0.00 0.00 0.00 0.00 0.00 0.00 0.00 0.00 0.00 0.00 0.00 0.00 0.00 0.00 0.00 0.00 0.00 0.00 0.00 0.00 0.00 0.00 0.00 0.00 0.01 0.01 0.01 0.01 0.01 0.01 0.01 0.01 0.03 0.16 0.99
0.00 0.00 0.00 0.00 0.00 0.00 0.00 0.00 0.00 0.00 0.00 0.00 0.00 0.00 0.00 0.00 0.00 0.00 0.00 0.00 0.00 0.00 0.00 0.00 0.00 0.00 0.00 0.00 0.00 0.00 0.00 0.00 0.00 0.00 0.00 0.00 0.01 0.01 0.01 0.02 0.02 0.04 0.05 0.31
0.00 0.00 0.00 0.00 0.00 0.00 0.00 0.00 0.00 0.00 0.00 0.00 0.00 0.00 0.00 0.00 0.00 0.00 0.00 0.00 0.00 0.00 0.00 0.00 0.00 0.00 0.00 0.00 0.00 0.00 0.00 0.00 0.00 0.00 0.00 0.00 0.01 0.02 0.03 0.03 0.02 0.02 0.10 0.21
0.00 0.00 0.00 0.00 0.00 0.00 0.00 0.00 0.00 0.00 0.00 0.00 0.00 0.00 0.00 0.00 0.00 0.00 0.00 0.00 0.00 0.00 0.00 0.00 0.00 0.00 0.00 0.00 0.00 0.00 0.00 0.00 0.00 0.00 0.00 0.00 0.01 0.01 0.01 0.01 0.01 0.01 0.05 0.21
0.00 0.00 0.00 0.00 0.00 0.00 0.00 0.00 0.00 0.00 0.00 0.00 0.00 0.00 0.00 0.00 0.00 0.00 0.00 0.00 0.00 0.00 0.00 0.00 0.00 0.00 0.00 0.00 0.00 0.00 0.00 0.00 0.00 0.00 0.00 0.00 0.01 0.01 0.01 0.01 0.02 0.03 0.03 0.04
0.00 0.00 0.00 0.00 0.00 0.00 0.00 0.00 0.00 0.00 0.00 0.00 0.00 0.00 0.00 0.00 0.00 0.00 0.00 0.00 0.00 0.00 0.00 0.00 0.00 0.00 0.00 0.00 0.00 0.00 0.00 0.00 0.00 0.00 0.00 0.00 0.00 0.01 0.02 0.01 0.02 0.02 0.03 0.11
0.00 0.00 0.00 0.00 0.00 0.00 0.00 0.00 0.00 0.00 0.01 0.00 0.00 0.00 0.00 0.00 0.00 0.00 0.00 0.00 0.00 0.00 0.00 0.00 0.00 0.00 0.00 0.00 0.00 0.00 0.00 0.00 0.00 0.00 0.00 0.00 0.01 0.01 0.01 0.01 0.01 0.01 0.01 0.04
0.00 0.00 0.00 0.00 0.00 0.00 0.00 0.00 0.00 0.00 0.00 0.00 0.00 0.00 0.00 0.00 0.00 0.00 0.00 0.00 0.00 0.00 0.00 0.00 0.00 0.00 0.00 0.00 0.00 0.00 0.00 0.00 0.00 0.00 0.00 0.00 0.00 0.00 0.00 0.01 0.01 0.02 0.01 0.01
0.00 0.00 0.00 0.00 0.00 0.00 0.02 0.00 0.00 0.02 0.01 0.01 0.00 0.00 0.00 0.00 0.00 0.00 0.00 0.00 0.00 0.00 0.00 0.00 0.00 0.00 0.00 0.00 0.00 0.00 0.00 0.00 0.01 0.01 0.00 0.01 0.00 0.01 0.01 0.00 0.01 0.02 0.02 0.02
0.00 0.00 0.00 0.00 0.00 0.00 0.02 0.02 0.04 0.05 0.03 0.02 0.00 0.02 0.05 0.01 0.00 0.00 0.00 0.00 0.00 0.00 0.00 0.00 0.00 0.00 0.00 0.00 0.00 0.00 0.00 0.00 0.01 0.02 0.00 0.00 0.00 0.01 0.01 0.00 0.00 0.00 0.01 0.02
0.01 0.00 0.01 0.03 0.01 0.02 0.03 0.03 0.03 0.06 0.04 0.05 0.03 0.13 0.10 0.01 0.00 0.00 0.00 0.00 0.00 0.00 0.00 0.00 0.00 0.00 0.00 0.00 0.00 0.01 0.00 0.00 0.01 0.03 0.00 0.00 0.00 0.01 0.00 0.00 0.00 0.00 0.01 0.02
0.09 0.07 0.02 0.01 0.00 0.00 0.01 0.04 0.08 0.06 0.07 0.08 0.09 0.11 0.08 0.04 0.00 0.00 0.00 0.00 0.01 0.01 0.02 0.02 0.02 0.01 0.01 0.01 0.02 0.02 0.01 0.00 0.02 0.04 0.01 0.00 0.00 0.01 0.01 0.01 0.01 0.00 0.00 0.01
0.04 0.09 0.09 0.04 0.06 0.03 0.03 0.04 0.06 0.06 0.05 0.05 0.11 0.18 0.31 0.18 0.05 0.01 0.00 0.00 0.01 0.03 0.04 0.04 0.04 0.04 0.03 0.03 0.03 0.05 0.02 0.07 0.11 0.06 0.01 0.00 0.00 0.01 0.01 0.01 0.01 0.01 0.01 0.00
0.10 0.05 0.05 0.07 0.07 0.08 0.06 0.04 0.04 0.04 0.04 0.05 0.06 0.05 0.15 0.23 0.16 0.10 0.01 0.02 0.04 0.04 0.07 0.06 0.06 0.05 0.05 0.05 0.05 0.09 0.14 0.15 0.10 0.04 0.02 0.01 0.00 0.00 0.00 0.00 0.01 0.01 0.02 0.01
0.19 0.10 0.04 0.03 0.02 0.01 0.04 0.04 0.02 0.02 0.00 0.00 0.00 0.00 0.00 0.00 0.04 0.12 0.03 0.04 0.08 0.10 0.08 0.10 0.07 0.07 0.06 0.06 0.07 0.11 0.13 0.12 0.09 0.05 0.02 0.01 0.01 0.01 0.01 0.01 0.01 0.01 0.01 0.01
0.28 0.17 0.07 0.06 0.02 0.02 0.02 0.00 0.00 0.00 0.00 0.00 0.00 0.00 0.00 0.02 0.04 0.02 0.08 0.11 0.15 0.14 0.13 0.12 0.10 0.08 0.07 0.05 0.06 0.09 0.11 0.07 0.05 0.03 0.01 0.01 0.02 0.01 0.02 0.01 0.01 0.01 0.01 0.01
0.25 0.34 0.24 0.11 0.03 0.01 0.01 0.00 0.00 0.00 0.00 0.00 0.01 0.01 0.01 0.02 0.03 0.03 0.03 0.04 0.13 0.27 0.11 0.11 0.11 0.08 0.08 0.06 0.04 0.07 0.09 0.07 0.03 0.02 0.03 0.01 0.00 0.01 0.01 0.01 0.01 0.02 0.02 0.02
0.24 0.26 0.30 0.20 0.02 0.01 0.00 0.00 0.00 0.00 0.01 0.00 0.00 0.02 0.01 0.01 0.15 0.24 0.16 0.09 0.14 0.25 0.40 0.10 0.08 0.04 0.04 0.04 0.03 0.04 0.06 0.07 0.05 0.02 0.03 0.03 0.01 0.01 0.01 0.02 0.02 0.01 0.01 0.02
0.07 0.20 0.23 0.12 0.02 0.01 0.00 0.00 0.00 0.00 0.03 0.00 0.00 0.01 0.01 0.02 0.04 0.27 0.31 0.18 0.19 0.25 0.34 0.57 0.17 0.07 0.05 0.01 0.00 0.01 0.02 0.02 0.02 0.02 0.01 0.00 0.00 0.01 0.01 0.00 0.00 0.00 0.00 0.00
0.02 0.08 0.23 0.10 0.02 0.01 0.06 0.00 0.00 0.00 0.01 0.00 0.00 0.00 0.00 0.00 0.03 0.05 0.06 0.14 0.25 0.31 0.29 0.30 0.42 0.25 0.17 0.14 0.04 0.00 0.01 0.01 0.01 0.01 0.01 0.00 0.00 0.00 0.00 0.00 0.00 0.00 0.00 0.00
0.03 0.03 0.07 0.07 0.02 0.01 0.00 0.00 0.00 0.00 0.01 0.00 0.00 0.00 0.00 0.00 0.02 0.12 0.25 0.23 0.31 0.18 0.19 0.23 0.15 0.12 0.11 0.14 0.16 0.12 0.04 0.02 0.01 0.01 0.01 0.01 0.00 0.00 0.01 0.01 0.00 0.00 0.00 0.00
0.08 0.07 0.04 0.04 0.03 0.03 0.00 0.00 0.00 0.01 0.00 0.00 0.00 0.00 0.01 0.02 0.07 0.14 0.31 0.42 0.48 0.32 0.14 0.08 0.10 0.04 0.01 0.00 0.01 0.02 0.05 0.06 0.05 0.03 0.01 0.01 0.01 0.01 0.01 0.01 0.01 0.01 0.00 0.00
0.09 0.08 0.12 0.09 0.07 0.00 0.00 0.00 0.00 0.00 0.00 0.01 0.00 0.00 0.01 0.06 0.20 0.26 0.28 0.41 0.48 0.36 0.05 0.00 0.00 0.00 0.00 0.00 0.00 0.00 0.00 0.00 0.00 0.01 0.01 0.01 0.01 0.01 0.01 0.01 0.01 0.00 0.00 0.00
0.07 0.01 0.02 0.03 0.10 0.05 0.02 0.00 0.00 0.01 0.01 0.00 0.01 0.01 0.05 0.12 0.18 0.27 0.35 0.34 0.37 0.31 0.04 0.00 0.00 0.00 0.00 0.00 0.00 0.00 0.00 0.00 0.00 0.00 0.00 0.00 0.00 0.00 0.00 0.00 0.00 0.00 0.00 0.00
0.01 0.01 0.01 0.15 0.19 0.18 0.09 0.06 0.02 0.02 0.01 0.03 0.08 0.07 0.10 0.15 0.16 0.12 0.15 0.22 0.27 0.30 0.14 0.01 0.00 0.00 0.00 0.00 0.00 0.00 0.00 0.00 0.00 0.00 0.00 0.00 0.00 0.00 0.00 0.01 0.01 0.00 0.01 0.00
0.01 0.02 0.04 0.15 0.09 0.14 0.13 0.08 0.04 0.03 0.03 0.08 0.05 0.04 0.06 0.09 0.11 0.14 0.11 0.07 0.08 0.11 0.07 0.02 0.00 0.00 0.00 0.00 0.00 0.00 0.00 0.00 0.00 0.00 0.00 0.00 0.00 0.00 0.00 0.00 0.00 0.01 0.01 0.00